M I D A S
Marine Information and Data Acquisition System
Tripno 2268 of the Zeeleeuw from 2012-02-17 07:27:53 to 2012-02-17 15:06:24
Back to CruiseResearch ActivitiesStationsMapUnderway DataData graphs

EquipmentUnitsComments
TimeDGPSUTC
LatitudeDGPSDM.mWGS84
LongitudeDGPSDM.mWGS84
SpeedMeteo Stationm/sRelative wind speed
DirectionMeteo StationdegRelative wind direction
TemperatureMeteo Stationdeg CelciusAir temperature
PressureMeteo StationPaAtmospheric pressure
HumidityMeteo Station%Relative humidity
Missing or incorrect values are displayed as -999
Metereological data collected by the RV Zeeleeuw from 2012-02-17 07:02:22 to 2012-02-17 16:13:58
Time Latitude Longitude Speed Direction Temperature Pressure Humidity
2012-02-17 07:03 51°13.636 2°56.019 5 42 5.4 102290 47
2012-02-17 07:04 51°13.635 2°56.019 3.2 31 5.4 102280 45
2012-02-17 07:05 51°13.637 2°56.019 2.7 31 5.5 102280 45
2012-02-17 07:06 51°13.636 2°56.019 3.3 37 5.4 102290 46
2012-02-17 07:07 51°13.637 2°56.018 3.5 41 5.4 102290 45
2012-02-17 07:08 51°13.637 2°56.019 4.8 28 5.4 102280 44
2012-02-17 07:09 51°13.637 2°56.019 4.8 56 5.4 102280 46
2012-02-17 07:10 51°13.637 2°56.019 4.9 42 5.5 102280 43
2012-02-17 07:11 51°13.636 2°56.019 4.1 41 5.5 102290 45
2012-02-17 07:12 51°13.636 2°56.019 4.1 39 5.5 102290 44
2012-02-17 07:13 51°13.635 2°56.019 5.1 44 5.5 102290 44
2012-02-17 07:14 51°13.635 2°56.019 4.4 56 5.5 102290 45
2012-02-17 07:15 51°13.636 2°56.019 4.6 44 5.6 102290 45
2012-02-17 07:16 51°13.638 2°56.019 5.2 38 5.6 102290 47
2012-02-17 07:17 51°13.637 2°56.019 5.4 32 5.6 102280 45
2012-02-17 07:18 51°13.636 2°56.019 5.1 36 5.6 102270 43
2012-02-17 07:19 51°13.635 2°56.019 3.6 42 5.6 102280 47
2012-02-17 07:20 51°13.64 2°55.999 4.7 52 5.6 102280 44
2012-02-17 07:21 51°13.663 2°55.905 6.8 55 5.6 102280 47
2012-02-17 07:22 51°13.694 2°55.809 4.4 50 5.6 102280 45
2012-02-17 07:23 51°13.708 2°55.788 4 54 5.6 102280 45
2012-02-17 07:24 51°13.696 2°55.761 5.8 49 5.6 102290 44
2012-02-17 07:25 51°13.712 2°55.771 4.4 306 5.6 102290 44
2012-02-17 07:26 51°13.743 2°55.742 4.6 305 5.6 102300 43
2012-02-17 07:27 51°13.81 2°55.651 6.6 308 5.6 102290 44
2012-02-17 07:28 51°13.941 2°55.55 4 302 5.5 102290 46
2012-02-17 07:29 51°14.094 2°55.449 5.2 305 5.5 102290 45
2012-02-17 07:30 51°14.236 2°55.325 8 304 5.3 102310 46
2012-02-17 07:31 51°14.378 2°55.184 8.2 307 5 102280 45
2012-02-17 07:32 51°14.527 2°55.043 8.3 309 4.6 102280 43
2012-02-17 07:33 51°14.709 2°54.908 7.3 304 4.4 102260 45
2012-02-17 07:34 51°14.914 2°54.874 6.4 306 4.2 102290 42
2012-02-17 07:35 51°15.13 2°54.961 5 302 4.1 102290 46
2012-02-17 07:36 51°15.333 2°55.111 4 307 4 102300 45
2012-02-17 07:37 51°15.528 2°55.303 1.7 309 4 102300 45
2012-02-17 07:38 51°15.693 2°55.562 1.5 304 4 102290 44
2012-02-17 07:39 51°15.849 2°55.833 0.1 302 4 102290 45
2012-02-17 07:40 51°15.991 2°56.128 0.1 307 4 102300 45
2012-02-17 07:41 51°16.126 2°56.43 0.1 302 4 102300 45
2012-02-17 07:42 51°16.248 2°56.741 -999 353 4 102300 44
2012-02-17 07:43 51°16.335 2°57.084 0.3 21 3.9 102300 45
2012-02-17 07:44 51°16.423 2°57.431 0.3 13 3.9 102300 45
2012-02-17 07:45 51°16.515 2°57.774 0.1 15 3.8 102300 47
2012-02-17 07:46 51°16.639 2°58.097 0.3 304 3.8 102300 45
2012-02-17 07:47 51°16.777 2°58.389 0.1 301 3.8 102310 44
2012-02-17 07:48 51°16.92 2°58.688 0.1 302 3.8 102310 45
2012-02-17 07:49 51°17.058 2°58.995 0.1 330 3.9 102300 46
2012-02-17 07:50 51°17.188 2°59.31 0.1 307 3.8 102300 44
2012-02-17 07:51 51°17.326 2°59.617 0.1 307 3.9 102300 45
2012-02-17 07:52 51°17.463 2°59.925 0.6 334 3.9 102300 45
2012-02-17 07:53 51°17.587 3°0.238 0.1 328 3.9 102310 45
2012-02-17 07:54 51°17.726 3°0.553 0.4 304 3.9 102300 45
2012-02-17 07:55 51°17.857 3°0.874 0.1 302 3.8 102300 45
2012-02-17 07:56 51°18.002 3°1.185 0.1 309 3.8 102300 45
2012-02-17 07:57 51°18.138 3°1.495 0.1 312 3.8 102300 45
2012-02-17 07:58 51°18.286 3°1.8 0.1 306 3.8 102300 44
2012-02-17 07:59 51°18.429 3°2.112 0.2 308 3.8 102300 45
2012-02-17 08:00 51°18.562 3°2.432 0.9 309 3.8 102310 45
2012-02-17 08:01 51°18.702 3°2.742 0.2 302 3.8 102300 44
2012-02-17 08:02 51°18.842 3°3.048 -999 307 3.8 102310 45
2012-02-17 08:03 51°18.972 3°3.356 0.1 307 3.8 102300 45
2012-02-17 08:04 51°19.121 3°3.646 0.2 309 3.8 102300 45
2012-02-17 08:05 51°19.25 3°3.939 0.1 305 3.8 102300 45
2012-02-17 08:06 51°19.39 3°4.221 0.1 306 3.8 102300 45
2012-02-17 08:07 51°19.516 3°4.536 0.1 307 3.8 102290 45
2012-02-17 08:08 51°19.631 3°4.871 0.1 306 3.8 102300 45
2012-02-17 08:09 51°19.756 3°5.199 0.1 311 3.8 102300 45
2012-02-17 08:10 51°19.881 3°5.522 0.8 303 3.8 102300 45
2012-02-17 08:11 51°20.015 3°5.832 -999 54 3.8 102310 45
2012-02-17 08:12 51°20.132 3°6.156 0.4 56 3.8 102300 45
2012-02-17 08:13 51°20.258 3°6.469 0.2 56 3.9 102290 45
2012-02-17 08:14 51°20.391 3°6.774 0.1 307 3.9 102290 44
2012-02-17 08:15 51°20.512 3°7.099 0.1 311 3.9 102300 45
2012-02-17 08:16 51°20.631 3°7.428 -999 306 3.9 102300 45
2012-02-17 08:17 51°20.739 3°7.77 0.1 354 3.8 102300 45
2012-02-17 08:18 51°20.851 3°8.11 0.1 311 3.9 102290 45
2012-02-17 08:19 51°20.968 3°8.441 0.1 53 3.9 102290 45
2012-02-17 08:20 51°21.046 3°8.677 2.7 51 3.9 102280 44
2012-02-17 08:21 51°21.115 3°8.761 3.6 311 3.9 102290 44
2012-02-17 08:22 51°21.174 3°8.8 5.7 302 3.8 102280 44
2012-02-17 08:23 51°21.218 3°8.819 7.2 304 3.7 102280 46
2012-02-17 08:24 51°21.252 3°8.824 6.7 310 3.7 102280 44
2012-02-17 08:25 51°21.283 3°8.715 9.6 309 3.7 102280 46
2012-02-17 08:26 51°21.381 3°8.492 11 307 3.7 102290 45
2012-02-17 08:27 51°21.507 3°8.252 11.5 309 3.7 102270 45
2012-02-17 08:28 51°21.604 3°7.989 10.9 305 3.7 102270 44
2012-02-17 08:29 51°21.671 3°7.706 9.5 304 3.6 102270 45
2012-02-17 08:30 51°21.721 3°7.415 9.6 306 3.6 102280 46
2012-02-17 08:31 51°21.786 3°7.136 9.9 322 3.6 102280 45
2012-02-17 08:32 51°21.81 3°6.853 9.2 304 3.6 102280 46
2012-02-17 08:33 51°21.817 3°6.567 10.9 306 3.5 102280 44
2012-02-17 08:34 51°21.833 3°6.279 9.3 304 3.5 102280 44
2012-02-17 08:35 51°21.866 3°5.992 10.5 302 3.5 102280 45
2012-02-17 08:36 51°21.893 3°5.7 9.2 305 3.5 102280 44
2012-02-17 08:37 51°21.904 3°5.409 9.7 324 3.5 102290 45
2012-02-17 08:38 51°21.923 3°5.121 10.2 324 3.5 102280 45
2012-02-17 08:39 51°21.954 3°4.833 11.7 324 3.6 102280 44
2012-02-17 08:40 51°21.967 3°4.543 11.3 325 3.7 102280 45
2012-02-17 08:41 51°21.989 3°4.255 10.3 323 3.7 102280 44
2012-02-17 08:42 51°22.034 3°3.969 10.5 306 3.7 102300 45
2012-02-17 08:43 51°22.069 3°3.681 9.9 306 3.7 102300 46
2012-02-17 08:44 51°22.091 3°3.391 9.5 322 3.7 102300 44
2012-02-17 08:45 51°22.132 3°3.101 10.1 307 3.6 102290 45
2012-02-17 08:46 51°22.16 3°2.808 9.2 325 3.5 102300 45
2012-02-17 08:47 51°22.186 3°2.516 9.9 306 3.6 102300 46
2012-02-17 08:48 51°22.227 3°2.227 10.6 324 3.7 102300 45
2012-02-17 08:49 51°22.25 3°1.937 8.7 305 3.9 102300 45
2012-02-17 08:50 51°22.283 3°1.647 9.3 323 3.9 102290 45
2012-02-17 08:51 51°22.314 3°1.36 11.6 325 3.9 102270 44
2012-02-17 08:52 51°22.335 3°1.07 11.6 324 3.9 102290 44
2012-02-17 08:53 51°22.381 3°0.777 10.9 325 3.9 102290 44
2012-02-17 08:54 51°22.42 3°0.495 10.4 327 3.9 102290 45
2012-02-17 08:55 51°22.447 3°0.205 11.4 326 4 102290 44
2012-02-17 08:56 51°22.486 2°59.916 9.2 327 4 102300 45
2012-02-17 08:57 51°22.514 2°59.626 9.7 305 3.9 102300 44
2012-02-17 08:58 51°22.553 2°59.338 9.7 325 3.9 102290 45
2012-02-17 08:59 51°22.583 2°59.049 9.7 305 3.9 102300 45
2012-02-17 09:00 51°22.621 2°58.757 8.2 304 3.8 102300 44
2012-02-17 09:01 51°22.656 2°58.472 9.4 305 3.8 102300 43
2012-02-17 09:02 51°22.706 2°58.186 9.8 324 3.8 102300 45
2012-02-17 09:03 51°22.74 2°57.895 10.4 304 3.9 102300 43
2012-02-17 09:04 51°22.765 2°57.6 12.4 324 3.9 102300 45
2012-02-17 09:05 51°22.813 2°57.307 8.6 322 4 102300 44
2012-02-17 09:06 51°22.921 2°57.051 8 306 4 102290 44
2012-02-17 09:07 51°23.061 2°56.821 7.7 311 4 102300 45
2012-02-17 09:08 51°23.184 2°56.584 6.4 303 4.1 102310 45
2012-02-17 09:09 51°23.254 2°56.302 8.4 324 4 102280 45
2012-02-17 09:10 51°23.282 2°56.011 10.1 324 4 102290 45
2012-02-17 09:11 51°23.319 2°55.718 10.2 324 4.1 102310 44
2012-02-17 09:12 51°23.368 2°55.429 9.6 306 4.2 102280 44
2012-02-17 09:13 51°23.407 2°55.138 10 326 4.2 102290 44
2012-02-17 09:14 51°23.426 2°54.843 9 324 4.2 102290 44
2012-02-17 09:15 51°23.457 2°54.549 10.2 304 4.2 102290 43
2012-02-17 09:16 51°23.475 2°54.253 9.5 324 4.1 102300 45
2012-02-17 09:17 51°23.515 2°53.96 9.8 324 4.1 102300 45
2012-02-17 09:18 51°23.541 2°53.664 12 326 4.1 102290 44
2012-02-17 09:19 51°23.574 2°53.375 9.8 327 4.1 102300 45
2012-02-17 09:20 51°23.586 2°53.082 11.6 330 4.1 102300 44
2012-02-17 09:21 51°23.591 2°52.789 10.8 329 4.3 102300 44
2012-02-17 09:22 51°23.612 2°52.497 11.1 327 4.4 102300 45
2012-02-17 09:23 51°23.623 2°52.204 11.1 332 4.6 102300 45
2012-02-17 09:24 51°23.631 2°51.912 10.7 331 4.7 102300 45
2012-02-17 09:25 51°23.641 2°51.619 10.5 330 4.8 102300 45
2012-02-17 09:26 51°23.653 2°51.326 10.7 329 4.9 102290 44
2012-02-17 09:27 51°23.664 2°51.034 9.8 329 5 102300 44
2012-02-17 09:28 51°23.67 2°50.745 11.4 330 5 102300 45
2012-02-17 09:29 51°23.683 2°50.457 12.7 328 5.1 102300 45
2012-02-17 09:30 51°23.708 2°50.168 13.5 327 5.1 102300 44
2012-02-17 09:31 51°23.713 2°49.88 10.2 327 5.1 102300 45
2012-02-17 09:32 51°23.735 2°49.594 10.8 305 5.1 102300 45
2012-02-17 09:33 51°23.746 2°49.308 11.8 326 5.1 102300 44
2012-02-17 09:34 51°23.732 2°49.026 9.7 330 5.1 102310 44
2012-02-17 09:35 51°23.702 2°48.746 9.1 329 5.1 102300 45
2012-02-17 09:36 51°23.69 2°48.459 8.1 328 5.1 102310 44
2012-02-17 09:37 51°23.66 2°48.177 8.5 331 5 102310 43
2012-02-17 09:38 51°23.646 2°47.888 9.8 327 5.1 102320 45
2012-02-17 09:39 51°23.633 2°47.599 10.1 330 5.1 102310 44
2012-02-17 09:40 51°23.607 2°47.313 9.3 330 5.1 102310 45
2012-02-17 09:41 51°23.587 2°47.025 9.6 333 5.1 102300 45
2012-02-17 09:42 51°23.559 2°46.738 10.5 333 5.2 102300 45
2012-02-17 09:43 51°23.553 2°46.445 12.3 330 5.3 102300 45
2012-02-17 09:44 51°23.561 2°46.144 12.3 330 5.4 102300 46
2012-02-17 09:45 51°23.557 2°45.848 11.2 333 5.5 102300 46
2012-02-17 09:46 51°23.544 2°45.552 10 330 5.6 102300 45
2012-02-17 09:47 51°23.545 2°45.26 9.3 330 5.5 102300 45
2012-02-17 09:48 51°23.534 2°44.97 11.1 329 5.6 102300 44
2012-02-17 09:49 51°23.527 2°44.679 11.2 330 5.6 102300 44
2012-02-17 09:50 51°23.513 2°44.385 12.5 329 5.6 102300 44
2012-02-17 09:51 51°23.524 2°44.097 13.2 329 5.7 102300 45
2012-02-17 09:52 51°23.524 2°43.8 13.3 331 5.7 102300 45
2012-02-17 09:53 51°23.51 2°43.515 10.8 330 5.7 102300 44
2012-02-17 09:54 51°23.512 2°43.222 11.5 332 5.6 102300 44
2012-02-17 09:55 51°23.513 2°42.922 12.3 331 5.7 102300 45
2012-02-17 09:56 51°23.499 2°42.632 10.6 329 5.7 102300 44
2012-02-17 09:57 51°23.498 2°42.329 12.6 329 5.7 102310 45
2012-02-17 09:58 51°23.499 2°42.034 11.2 330 5.7 102300 43
2012-02-17 09:59 51°23.49 2°41.731 9.5 329 5.7 102300 45
2012-02-17 10:00 51°23.484 2°41.439 12.3 329 5.6 102300 45
2012-02-17 10:01 51°23.48 2°41.138 11.8 328 5.6 102310 45
2012-02-17 10:02 51°23.496 2°40.849 10.3 327 5.6 102300 45
2012-02-17 10:03 51°23.493 2°40.561 10.7 327 5.7 102300 45
2012-02-17 10:04 51°23.514 2°40.273 5.5 326 5.7 102310 44
2012-02-17 10:05 51°23.52 2°39.984 13.8 302 5.7 102310 45
2012-02-17 10:06 51°23.531 2°39.69 9.8 328 5.8 102310 43
2012-02-17 10:07 51°23.548 2°39.401 12 328 5.8 102300 45
2012-02-17 10:08 51°23.558 2°39.112 10.8 330 5.8 102310 44
2012-02-17 10:09 51°23.551 2°38.823 11.5 329 5.8 102310 46
2012-02-17 10:10 51°23.555 2°38.532 9.5 329 5.9 102310 45
2012-02-17 10:11 51°23.568 2°38.246 10.8 329 5.9 102320 46
2012-02-17 10:12 51°23.563 2°37.952 11.2 329 6 102310 46
2012-02-17 10:13 51°23.574 2°37.661 11.1 327 5.9 102320 46
2012-02-17 10:14 51°23.576 2°37.37 10.2 328 5.9 102320 45
2012-02-17 10:15 51°23.577 2°37.076 12.1 328 5.9 102320 46
2012-02-17 10:16 51°23.575 2°36.784 10.1 303 5.9 102330 45
2012-02-17 10:17 51°23.588 2°36.475 9.4 326 5.9 102330 46
2012-02-17 10:18 51°23.582 2°36.173 10.4 325 5.9 102330 46
2012-02-17 10:19 51°23.587 2°35.877 9.8 326 5.9 102340 46
2012-02-17 10:20 51°23.598 2°35.583 9.9 324 5.9 102330 47
2012-02-17 10:21 51°23.591 2°35.291 9.2 303 5.9 102330 46
2012-02-17 10:22 51°23.586 2°35.002 9.5 327 5.9 102330 46
2012-02-17 10:23 51°23.589 2°34.713 8.4 325 5.9 102340 45
2012-02-17 10:24 51°23.599 2°34.411 10.3 303 5.9 102340 45
2012-02-17 10:25 51°23.599 2°34.117 9.3 327 5.9 102330 46
2012-02-17 10:26 51°23.542 2°33.837 8.8 331 5.9 102350 45
2012-02-17 10:27 51°23.462 2°33.578 10 328 5.8 102330 45
2012-02-17 10:28 51°23.433 2°33.286 8.6 326 5.8 102340 47
2012-02-17 10:29 51°23.42 2°32.983 9.1 325 5.7 102340 46
2012-02-17 10:30 51°23.452 2°32.691 9.1 304 5.7 102330 44
2012-02-17 10:31 51°23.489 2°32.391 10.1 303 5.8 102340 47
2012-02-17 10:32 51°23.512 2°32.1 9 324 5.8 102340 46
2012-02-17 10:33 51°23.538 2°31.799 9.5 323 5.8 102340 47
2012-02-17 10:34 51°23.567 2°31.504 10.1 322 5.8 102340 47
2012-02-17 10:35 51°23.589 2°31.208 8.8 308 5.9 102340 47
2012-02-17 10:36 51°23.621 2°30.911 9.1 305 5.9 102340 47
2012-02-17 10:37 51°23.649 2°30.612 9.7 325 5.8 102340 47
2012-02-17 10:38 51°23.669 2°30.37 7.6 325 5.8 102360 44
2012-02-17 10:39 51°23.694 2°30.233 6.3 328 6 102360 46
2012-02-17 10:40 51°23.683 2°30.099 7.4 334 6.1 102360 46
2012-02-17 10:41 51°23.657 2°29.869 8.7 329 6.2 102350 47
2012-02-17 10:42 51°23.695 2°29.753 5.8 306 6.4 102360 46
2012-02-17 10:43 51°23.726 2°29.749 4.6 302 6.4 102360 47
2012-02-17 10:44 51°23.738 2°29.79 4.6 302 6.5 102370 46
2012-02-17 10:45 51°23.748 2°29.827 2.5 309 6.5 102370 48
2012-02-17 10:46 51°23.758 2°29.864 1.9 305 6.5 102370 45
2012-02-17 10:47 51°23.77 2°29.901 -999 306 6.6 102370 47
2012-02-17 10:48 51°23.778 2°29.936 -999 306 6.6 102380 47
2012-02-17 10:49 51°23.767 2°29.961 4.4 52 6.5 102380 47
2012-02-17 10:50 51°23.738 2°29.964 5.4 57 6.5 102370 47
2012-02-17 10:51 51°23.709 2°29.945 5.4 50 6.5 102370 48
2012-02-17 10:52 51°23.707 2°29.952 3.9 58 6.5 102370 48
2012-02-17 10:53 51°23.759 2°29.973 5.2 304 6.5 102370 48
2012-02-17 10:54 51°23.783 2°29.919 6.1 339 6.5 102370 48
2012-02-17 10:55 51°23.743 2°29.873 5.5 339 6.6 102370 46
2012-02-17 10:56 51°23.722 2°29.79 4.6 329 6.6 102370 46
2012-02-17 10:57 51°23.736 2°29.75 3.3 308 6.6 102380 46
2012-02-17 10:58 51°23.738 2°29.799 2.3 307 6.6 102380 48
2012-02-17 10:59 51°23.742 2°29.847 2.8 310 6.6 102380 49
2012-02-17 11:00 51°23.748 2°29.892 3 309 6.6 102380 48
2012-02-17 11:01 51°23.755 2°29.934 3.1 307 6.6 102380 46
2012-02-17 11:02 51°23.777 2°29.955 3 303 6.6 102380 48
2012-02-17 11:03 51°23.788 2°29.912 4.8 337 6.6 102370 46
2012-02-17 11:04 51°23.741 2°29.879 5.4 334 6.5 102370 48
2012-02-17 11:05 51°23.73 2°29.823 4.4 303 6.5 102360 48
2012-02-17 11:06 51°23.735 2°29.787 3.4 323 6.5 102370 48
2012-02-17 11:07 51°23.746 2°29.801 3 302 6.5 102370 46
2012-02-17 11:08 51°23.757 2°29.836 2.7 304 6.5 102370 46
2012-02-17 11:09 51°23.766 2°29.91 2.2 308 6.5 102370 48
2012-02-17 11:10 51°23.774 2°29.976 2.2 304 6.6 102370 46
2012-02-17 11:11 51°23.782 2°30.035 2.9 307 6.6 102370 49
2012-02-17 11:12 51°23.796 2°30.062 3.5 308 6.6 102370 49
2012-02-17 11:13 51°23.805 2°30.03 4.1 322 6.6 102360 47
2012-02-17 11:14 51°23.795 2°29.961 4.5 303 6.4 102370 46
2012-02-17 11:15 51°23.781 2°29.927 5.6 332 6.2 102360 48
2012-02-17 11:16 51°23.774 2°29.911 4.9 328 6.1 102370 48
2012-02-17 11:17 51°23.775 2°29.908 4.6 329 6.1 102370 48
2012-02-17 11:18 51°23.778 2°29.913 5.7 332 6.1 102360 46
2012-02-17 11:19 51°23.778 2°29.918 5.4 345 6.1 102360 48
2012-02-17 11:20 51°23.758 2°29.918 6 351 6.2 102360 48
2012-02-17 11:21 51°23.743 2°29.929 5.8 352 6.4 102360 49
2012-02-17 11:22 51°23.736 2°29.946 6.6 355 6.5 102360 48
2012-02-17 11:23 51°23.735 2°29.972 5.8 356 6.5 102360 49
2012-02-17 11:24 51°23.742 2°30.001 -999 359 6.6 102350 48
2012-02-17 11:25 51°23.752 2°30.035 -999 9 6.7 102360 47
2012-02-17 11:26 51°23.762 2°30.07 -999 14 6.7 102350 47
2012-02-17 11:27 51°23.773 2°30.104 -999 21 6.7 102360 47
2012-02-17 11:28 51°23.784 2°30.139 -999 24 6.7 102370 47
2012-02-17 11:29 51°23.79 2°30.175 -999 17 6.7 102360 47
2012-02-17 11:30 51°23.785 2°30.211 -999 2 6.6 102360 47
2012-02-17 11:31 51°23.775 2°30.231 -999 347 6.5 102360 47
2012-02-17 11:32 51°23.767 2°30.227 -999 306 6.5 102350 47
2012-02-17 11:33 51°23.765 2°30.189 -999 306 6.4 102360 47
2012-02-17 11:34 51°23.755 2°30.13 -999 327 6.4 102360 47
2012-02-17 11:35 51°23.741 2°30.076 5.4 326 6.3 102360 47
2012-02-17 11:36 51°23.743 2°30.072 5 327 6.3 102360 47
2012-02-17 11:37 51°23.749 2°30.076 5.6 305 6.3 102360 46
2012-02-17 11:38 51°23.76 2°30.085 5.4 310 6.3 102350 46
2012-02-17 11:39 51°23.772 2°30.1 5.4 309 6.3 102360 48
2012-02-17 11:40 51°23.787 2°30.118 5 305 6.3 102360 48
2012-02-17 11:41 51°23.806 2°30.126 5.2 309 6.3 102350 49
2012-02-17 11:42 51°23.826 2°30.126 5.3 308 6.3 102360 48
2012-02-17 11:43 51°23.841 2°30.12 6.2 305 6.3 102360 46
2012-02-17 11:44 51°23.847 2°30.115 6.5 334 6.3 102360 46
2012-02-17 11:45 51°23.846 2°30.112 5.8 340 6.3 102350 48
2012-02-17 11:46 51°23.839 2°30.107 6.9 334 6.3 102350 47
2012-02-17 11:47 51°23.835 2°30.095 6.3 327 6.3 102350 46
2012-02-17 11:48 51°23.838 2°30.09 4.2 305 6.3 102350 48
2012-02-17 11:49 51°23.848 2°30.108 3.1 305 6.3 102360 46
2012-02-17 11:50 51°23.861 2°30.147 3.1 304 6.3 102350 48
2012-02-17 11:51 51°23.874 2°30.198 2.9 303 6.3 102350 46
2012-02-17 11:52 51°23.884 2°30.244 6.5 302 6.3 102340 47
2012-02-17 11:53 51°23.892 2°30.284 5.3 308 6.3 102350 48
2012-02-17 11:54 51°23.906 2°30.301 5.8 302 6.3 102350 49
2012-02-17 11:55 51°23.925 2°30.284 6.2 303 6.3 102350 46
2012-02-17 11:56 51°23.925 2°30.258 5.4 341 6.3 102350 46
2012-02-17 11:57 51°23.921 2°30.254 5.2 343 6.3 102350 47
2012-02-17 11:58 51°23.919 2°30.262 6.1 344 6.2 102350 49
2012-02-17 11:59 51°23.897 2°30.249 7.6 336 6.3 102340 49
2012-02-17 12:00 51°23.818 2°30.124 9.3 337 6.3 102330 47
2012-02-17 12:01 51°23.759 2°30.003 8.2 335 6.3 102340 49
2012-02-17 12:02 51°23.735 2°29.966 7.3 341 6.3 102340 47
2012-02-17 12:03 51°23.72 2°29.955 7.9 348 6.3 102340 47
2012-02-17 12:04 51°23.712 2°29.958 7 349 6.3 102340 47
2012-02-17 12:05 51°23.71 2°29.97 6.7 354 6.3 102340 49
2012-02-17 12:06 51°23.71 2°29.986 7.3 354 6.3 102330 47
2012-02-17 12:07 51°23.713 2°30.005 7.2 355 6.2 102330 49
2012-02-17 12:08 51°23.719 2°30.027 6.4 4 6.3 102320 47
2012-02-17 12:09 51°23.728 2°30.051 7.5 9 6.2 102330 49
2012-02-17 12:10 51°23.736 2°30.074 7.3 18 6.2 102350 48
2012-02-17 12:11 51°23.746 2°30.097 6.7 22 6.3 102350 48
2012-02-17 12:12 51°23.755 2°30.119 6.9 25 6.3 102340 47
2012-02-17 12:13 51°23.765 2°30.141 6.9 23 6.3 102350 49
2012-02-17 12:14 51°23.774 2°30.162 7.1 23 6.4 102340 48
2012-02-17 12:15 51°23.784 2°30.184 7.4 28 6.4 102340 49
2012-02-17 12:16 51°23.793 2°30.205 7.5 23 6.5 102330 48
2012-02-17 12:17 51°23.802 2°30.227 6.6 21 6.5 102340 49
2012-02-17 12:18 51°23.81 2°30.248 6.2 19 6.5 102340 47
2012-02-17 12:19 51°23.815 2°30.27 7.2 18 6.5 102330 49
2012-02-17 12:20 51°23.813 2°30.291 6.6 2 6.4 102330 49
2012-02-17 12:21 51°23.802 2°30.303 7.2 349 6.4 102320 48
2012-02-17 12:22 51°23.791 2°30.303 8.6 340 6.4 102320 49
2012-02-17 12:23 51°23.786 2°30.289 7.5 307 6.5 102310 49
2012-02-17 12:24 51°23.792 2°30.264 7.2 308 6.5 102310 47
2012-02-17 12:25 51°23.804 2°30.233 7.1 305 6.5 102310 48
2012-02-17 12:26 51°23.813 2°30.195 8.4 304 6.6 102300 48
2012-02-17 12:27 51°23.815 2°30.156 8 325 6.6 102320 47
2012-02-17 12:28 51°23.816 2°30.115 8 303 6.6 102310 47
2012-02-17 12:29 51°23.818 2°30.07 8.3 323 6.7 102310 47
2012-02-17 12:30 51°23.816 2°30.026 7.4 330 6.7 102310 46
2012-02-17 12:31 51°23.808 2°29.991 7.6 335 6.7 102300 48
2012-02-17 12:32 51°23.801 2°29.975 8.7 339 6.7 102310 47
2012-02-17 12:33 51°23.799 2°29.973 7.9 340 6.8 102300 47
2012-02-17 12:34 51°23.799 2°29.982 7.3 345 6.8 102300 48
2012-02-17 12:35 51°23.799 2°29.994 7.9 347 6.8 102300 47
2012-02-17 12:36 51°23.751 2°29.936 11.6 341 6.7 102290 48
2012-02-17 12:37 51°23.706 2°29.842 8.8 302 6.8 102290 48
2012-02-17 12:38 51°23.702 2°29.776 9 304 6.8 102290 47
2012-02-17 12:39 51°23.718 2°29.743 8.3 308 6.8 102280 48
2012-02-17 12:40 51°23.742 2°29.723 8.1 303 6.8 102290 47
2012-02-17 12:41 51°23.778 2°29.694 7.9 308 6.8 102290 49
2012-02-17 12:42 51°23.814 2°29.655 7 308 6.8 102290 47
2012-02-17 12:43 51°23.841 2°29.629 8.4 302 6.8 102280 48
2012-02-17 12:44 51°23.861 2°29.613 7.4 305 6.8 102290 48
2012-02-17 12:45 51°23.884 2°29.591 9.3 309 6.8 102290 47
2012-02-17 12:46 51°23.915 2°29.542 7.6 306 6.8 102280 47
2012-02-17 12:47 51°23.951 2°29.478 9.1 309 6.8 102270 47
2012-02-17 12:48 51°24.021 2°29.522 4.5 52 6.8 102300 47
2012-02-17 12:49 51°23.977 2°29.618 8.6 358 6.9 102300 47
2012-02-17 12:50 51°23.863 2°29.716 8.5 10 6.8 102290 47
2012-02-17 12:51 51°23.777 2°29.918 7.7 12 6.7 102290 47
2012-02-17 12:52 51°23.701 2°29.943 8.8 342 6.6 102290 49
2012-02-17 12:53 51°23.67 2°29.851 10.2 324 6.6 102290 48
2012-02-17 12:54 51°23.637 2°29.686 10.8 324 6.6 102270 48
2012-02-17 12:55 51°23.639 2°29.588 7.6 306 6.7 102270 47
2012-02-17 12:56 51°23.651 2°29.555 8.3 309 6.7 102260 47
2012-02-17 12:57 51°23.659 2°29.556 10.7 310 6.7 102280 49
2012-02-17 12:58 51°23.667 2°29.561 5 304 6.7 102270 48
2012-02-17 12:59 51°23.675 2°29.569 5.3 309 6.7 102280 48
2012-02-17 13:00 51°23.679 2°29.577 5.2 305 6.6 102280 49
2012-02-17 13:01 51°23.683 2°29.586 5.1 307 6.6 102280 47
2012-02-17 13:02 51°23.687 2°29.595 5.2 311 6.5 102280 47
2012-02-17 13:03 51°23.69 2°29.604 4.5 309 6.5 102280 48
2012-02-17 13:04 51°23.692 2°29.613 5.1 308 6.5 102280 47
2012-02-17 13:05 51°23.687 2°29.624 6.9 310 6.5 102280 47
2012-02-17 13:06 51°23.7 2°29.634 5.9 57 6.5 102280 49
2012-02-17 13:07 51°23.722 2°29.666 4.7 58 6.6 102290 48
2012-02-17 13:08 51°23.731 2°29.712 7.2 37 6.6 102300 48
2012-02-17 13:09 51°23.731 2°29.744 6.5 36 6.6 102300 47
2012-02-17 13:10 51°23.729 2°29.767 5.7 31 6.6 102300 47
2012-02-17 13:11 51°23.728 2°29.782 6.5 26 6.5 102290 48
2012-02-17 13:12 51°23.729 2°29.79 6.6 23 6.6 102290 48
2012-02-17 13:13 51°23.732 2°29.796 7.4 20 6.5 102290 48
2012-02-17 13:14 51°23.735 2°29.803 7.3 19 6.5 102290 49
2012-02-17 13:15 51°23.738 2°29.81 5.7 22 6.5 102290 47
2012-02-17 13:16 51°23.741 2°29.817 7.7 19 6.5 102280 47
2012-02-17 13:17 51°23.747 2°29.826 8.9 20 6.5 102280 48
2012-02-17 13:18 51°23.736 2°29.867 5.5 37 6.5 102300 47
2012-02-17 13:19 51°23.74 2°30.046 5.2 21 6.5 102290 49
2012-02-17 13:20 51°23.721 2°30.366 4.1 13 6.5 102290 46
2012-02-17 13:21 51°23.678 2°30.69 4.7 22 6.4 102270 46
2012-02-17 13:22 51°23.654 2°31.018 4.1 19 6.4 102270 46
2012-02-17 13:23 51°23.638 2°31.344 3.4 18 6.4 102280 49
2012-02-17 13:24 51°23.633 2°31.668 3.5 21 6.3 102280 49
2012-02-17 13:25 51°23.626 2°31.991 4.6 18 6.3 102280 46
2012-02-17 13:26 51°23.61 2°32.32 3.2 22 6.3 102270 48
2012-02-17 13:27 51°23.616 2°32.651 1.9 25 6.3 102280 49
2012-02-17 13:28 51°23.633 2°32.976 3.1 19 6.3 102280 46
2012-02-17 13:29 51°23.624 2°33.314 3.8 18 6.3 102280 49
2012-02-17 13:30 51°23.635 2°33.647 2.8 23 6.3 102280 47
2012-02-17 13:31 51°23.645 2°33.975 2.8 21 6.2 102270 46
2012-02-17 13:32 51°23.645 2°34.298 2.9 30 6.2 102270 48
2012-02-17 13:33 51°23.654 2°34.621 3.5 16 6.2 102270 47
2012-02-17 13:34 51°23.646 2°34.941 3.8 26 6.1 102270 48
2012-02-17 13:35 51°23.659 2°35.272 2.6 26 6.1 102270 49
2012-02-17 13:36 51°23.667 2°35.601 2.8 20 6.1 102270 46
2012-02-17 13:37 51°23.665 2°35.931 4 24 6.2 102270 47
2012-02-17 13:38 51°23.663 2°36.263 3.8 30 6.2 102270 47
2012-02-17 13:39 51°23.676 2°36.594 3.8 23 6.2 102270 48
2012-02-17 13:40 51°23.67 2°36.923 3.7 18 6.2 102270 49
2012-02-17 13:41 51°23.66 2°37.249 2.6 24 6.1 102270 49
2012-02-17 13:42 51°23.666 2°37.576 4.2 26 6.1 102270 46
2012-02-17 13:43 51°23.666 2°37.906 3.5 30 6.2 102280 47
2012-02-17 13:44 51°23.66 2°38.235 4 19 6.3 102280 47
2012-02-17 13:45 51°23.667 2°38.564 3.5 20 6.2 102280 47
2012-02-17 13:46 51°23.667 2°38.896 3.5 14 6.2 102290 47
2012-02-17 13:47 51°23.66 2°39.227 4.6 18 6.1 102280 47
2012-02-17 13:48 51°23.663 2°39.555 3.7 18 6 102280 47
2012-02-17 13:49 51°23.675 2°39.881 4.1 28 6 102280 49
2012-02-17 13:50 51°23.657 2°40.203 6.1 14 6 102280 46
2012-02-17 13:51 51°23.604 2°40.521 5.6 18 5.9 102270 48
2012-02-17 13:52 51°23.557 2°40.839 4.7 15 5.9 102270 47
2012-02-17 13:53 51°23.567 2°41.159 2.3 35 5.9 102270 49
2012-02-17 13:54 51°23.604 2°41.478 2.2 27 5.9 102280 49
2012-02-17 13:55 51°23.63 2°41.797 3.6 23 5.8 102270 49
2012-02-17 13:56 51°23.639 2°42.127 3 27 5.8 102270 48
2012-02-17 13:57 51°23.655 2°42.455 3.1 26 5.8 102270 48
2012-02-17 13:58 51°23.719 2°42.755 0.8 266 5.8 102270 49
2012-02-17 13:59 51°23.865 2°42.968 3.1 302 5.9 102270 49
2012-02-17 14:00 51°24.039 2°43.127 3 265 5.8 102270 46
2012-02-17 14:01 51°24.211 2°43.291 3 309 5.9 102270 46
2012-02-17 14:02 51°24.38 2°43.455 3.4 302 5.9 102270 46
2012-02-17 14:03 51°24.491 2°43.508 6.6 33 5.9 102270 48
2012-02-17 14:04 51°24.537 2°43.55 4.8 51 5.8 102270 47
2012-02-17 14:05 51°24.574 2°43.587 7 31 5.8 102270 48
2012-02-17 14:06 51°24.624 2°43.62 6 36 5.8 102260 46
2012-02-17 14:07 51°24.651 2°43.667 3.4 38 5.8 102270 45
2012-02-17 14:08 51°24.665 2°43.7 6 33 6.1 102260 48
2012-02-17 14:09 51°24.672 2°43.711 3.9 38 6 102270 45
2012-02-17 14:10 51°24.675 2°43.718 5.4 37 6.1 102270 46
2012-02-17 14:11 51°24.678 2°43.724 8.4 50 6.1 102270 48
2012-02-17 14:12 51°24.676 2°43.72 8.6 31 6 102260 47
2012-02-17 14:13 51°24.676 2°43.719 7.1 50 5.9 102260 45
2012-02-17 14:14 51°24.678 2°43.718 8.2 31 5.8 102250 45
2012-02-17 14:15 51°24.681 2°43.716 7.3 56 5.8 102250 47
2012-02-17 14:16 51°24.675 2°43.711 7.1 59 5.8 102260 45
2012-02-17 14:17 51°24.664 2°43.706 8.1 33 5.8 102270 45
2012-02-17 14:18 51°24.656 2°43.701 8.1 36 5.8 102270 47
2012-02-17 14:19 51°24.658 2°43.699 8.3 33 5.8 102270 46
2012-02-17 14:20 51°24.666 2°43.696 8.6 38 5.8 102270 46
2012-02-17 14:21 51°24.68 2°43.699 7.6 33 5.8 102270 46
2012-02-17 14:22 51°24.676 2°43.689 7.9 34 5.9 102260 48
2012-02-17 14:23 51°24.666 2°43.673 5.2 32 5.9 102260 47
2012-02-17 14:24 51°24.662 2°43.69 7.5 40 6 102250 46
2012-02-17 14:25 51°24.657 2°43.714 6.8 36 5.9 102250 46
2012-02-17 14:26 51°24.662 2°43.737 4 32 5.9 102260 45
2012-02-17 14:27 51°24.663 2°43.737 3.5 31 6.2 102260 48
2012-02-17 14:28 51°24.661 2°43.734 6.4 36 6.3 102260 45
2012-02-17 14:29 51°24.662 2°43.733 5.7 58 6.1 102260 47
2012-02-17 14:30 51°24.664 2°43.734 7.1 34 6 102260 44
2012-02-17 14:31 51°24.668 2°43.733 6.9 32 6 102250 45
2012-02-17 14:32 51°24.672 2°43.731 7.9 35 6 102250 45
2012-02-17 14:33 51°24.673 2°43.726 6.5 28 6 102250 46
2012-02-17 14:34 51°24.672 2°43.722 6.2 305 6 102250 46
2012-02-17 14:35 51°24.669 2°43.717 5.5 267 5.9 102240 45
2012-02-17 14:36 51°24.665 2°43.713 5.5 265 5.9 102250 47
2012-02-17 14:37 51°24.66 2°43.709 5.7 265 5.9 102250 44
2012-02-17 14:38 51°24.656 2°43.705 6.5 263 5.8 102250 47
2012-02-17 14:39 51°24.669 2°43.7 6 268 5.9 102240 44
2012-02-17 14:40 51°24.672 2°43.694 8.9 30 5.9 102250 46
2012-02-17 14:41 51°24.654 2°43.675 7.4 36 5.9 102250 45
2012-02-17 14:42 51°24.658 2°43.691 7.4 35 6 102260 45
2012-02-17 14:43 51°24.667 2°43.706 10.3 32 6 102250 44
2012-02-17 14:44 51°24.676 2°43.712 8.1 37 6 102250 45
2012-02-17 14:45 51°24.68 2°43.71 7.3 267 6 102240 44
2012-02-17 14:46 51°24.678 2°43.704 6.4 303 6 102250 46
2012-02-17 14:47 51°24.675 2°43.698 7.5 261 6 102250 45
2012-02-17 14:48 51°24.671 2°43.691 8.5 309 5.9 102250 45
2012-02-17 14:49 51°24.664 2°43.685 6.3 265 5.9 102250 44
2012-02-17 14:50 51°24.656 2°43.681 5.2 306 5.9 102230 43
2012-02-17 14:51 51°24.646 2°43.678 6.1 308 5.9 102220 45
2012-02-17 14:52 51°24.638 2°43.676 8 314 5.9 102230 44
2012-02-17 14:53 51°24.647 2°43.68 7.4 55 5.9 102240 44
2012-02-17 14:54 51°24.663 2°43.729 6.5 41 5.9 102240 47
2012-02-17 14:55 51°24.627 2°43.803 7.6 18 5.9 102230 44
2012-02-17 14:56 51°24.513 2°43.931 7.9 8 5.9 102220 46
2012-02-17 14:57 51°24.352 2°44.119 6.6 5 5.8 102220 44
2012-02-17 14:58 51°24.186 2°44.3 8.5 9 5.8 102210 44
2012-02-17 14:59 51°24.029 2°44.512 6.4 6 5.7 102220 44
2012-02-17 15:00 51°23.873 2°44.71 9.2 8 5.6 102210 44
2012-02-17 15:01 51°23.703 2°44.901 9.5 9 5.6 102220 45
2012-02-17 15:02 51°23.549 2°45.113 8.8 9 5.6 102210 46
2012-02-17 15:03 51°23.403 2°45.333 8.5 11 5.6 102210 44
2012-02-17 15:04 51°23.243 2°45.548 8.6 8 5.5 102210 46
2012-02-17 15:05 51°23.086 2°45.754 10.1 9 5.6 102210 44
2012-02-17 15:06 51°22.92 2°45.952 8.4 2 5.8 102220 44
2012-02-17 15:07 51°22.722 2°46.039 9.7 357 5.6 102200 44
2012-02-17 15:08 51°22.507 2°46.08 14 360 5.5 102180 44
2012-02-17 15:09 51°22.299 2°46.135 10.2 356 5.9 102190 45
2012-02-17 15:10 51°22.092 2°46.194 11.5 358 5.7 102190 45
2012-02-17 15:11 51°21.887 2°46.261 8.9 -999 5.6 102190 44
2012-02-17 15:12 51°21.689 2°46.37 8.7 359 5.5 102200 44
2012-02-17 15:13 51°21.493 2°46.483 9.3 360 5.4 102200 45
2012-02-17 15:14 51°21.3 2°46.601 7.2 359 5.3 102210 44
2012-02-17 15:15 51°21.13 2°46.781 7.6 5 5.2 102210 45
2012-02-17 15:16 51°20.961 2°46.967 7.2 3 5.1 102200 45
2012-02-17 15:17 51°20.787 2°47.145 7.1 3 5.1 102200 43
2012-02-17 15:18 51°20.61 2°47.314 8.1 1 5 102200 45
2012-02-17 15:19 51°20.442 2°47.498 7.6 4 4.9 102200 46
2012-02-17 15:20 51°20.292 2°47.724 7.8 3 4.8 102200 43
2012-02-17 15:21 51°20.133 2°47.941 6.5 2 4.7 102200 44
2012-02-17 15:22 51°19.977 2°48.153 6.9 5 4.6 102200 43
2012-02-17 15:23 51°19.818 2°48.356 7.8 2 4.6 102200 45
2012-02-17 15:24 51°19.655 2°48.566 6.5 2 4.6 102210 45
2012-02-17 15:25 51°19.505 2°48.782 7.6 5 4.5 102200 44
2012-02-17 15:26 51°19.345 2°48.986 6.5 2 4.5 102210 45
2012-02-17 15:27 51°19.185 2°49.185 6.3 5 4.5 102210 44
2012-02-17 15:28 51°19.032 2°49.395 7.5 1 4.4 102200 45
2012-02-17 15:29 51°18.87 2°49.586 6.1 3 4.4 102200 45
2012-02-17 15:30 51°18.719 2°49.789 5.6 4 4.3 102180 45
2012-02-17 15:31 51°18.561 2°50.002 5.8 1 4.3 102200 43
2012-02-17 15:32 51°18.404 2°50.203 6.2 3 4.3 102210 44
2012-02-17 15:33 51°18.236 2°50.406 6.1 3 4.3 102210 44
2012-02-17 15:34 51°18.083 2°50.618 5.5 2 4.3 102210 45
2012-02-17 15:35 51°17.93 2°50.843 6.3 358 4.3 102210 44
2012-02-17 15:36 51°17.785 2°51.066 6.5 358 4.2 102210 45
2012-02-17 15:37 51°17.635 2°51.294 5.8 357 4.2 102210 43
2012-02-17 15:38 51°17.486 2°51.517 6.6 356 4.2 102220 43
2012-02-17 15:39 51°17.325 2°51.729 7.4 355 4.1 102210 44
2012-02-17 15:40 51°17.177 2°51.951 6.9 359 4.1 102220 45
2012-02-17 15:41 51°17.021 2°52.178 7.8 357 4.1 102210 45
2012-02-17 15:42 51°16.868 2°52.397 8.2 358 4.1 102210 45
2012-02-17 15:43 51°16.708 2°52.608 8.1 357 4.2 102210 45
2012-02-17 15:44 51°16.557 2°52.837 6.5 360 4.2 102210 43
2012-02-17 15:45 51°16.409 2°53.068 7.2 359 4.3 102210 43
2012-02-17 15:46 51°16.254 2°53.283 7.2 3 4.4 102210 43
2012-02-17 15:47 51°16.109 2°53.508 6.5 360 4.6 102210 44
2012-02-17 15:48 51°15.944 2°53.698 7.1 4 4.6 102210 45
2012-02-17 15:49 51°15.765 2°53.863 7.3 4 4.7 102200 44
2012-02-17 15:50 51°15.595 2°54.044 6.4 5 4.7 102200 45
2012-02-17 15:51 51°15.418 2°54.194 7.9 3 4.7 102200 43
2012-02-17 15:52 51°15.223 2°54.321 7.1 2 4.8 102200 45
2012-02-17 15:53 51°15.042 2°54.465 8.6 348 4.8 102200 45
2012-02-17 15:54 51°14.858 2°54.645 8.7 357 4.4 102200 44
2012-02-17 15:55 51°14.692 2°54.817 9.9 352 4.4 102200 45
2012-02-17 15:56 51°14.526 2°54.991 8.7 357 4.3 102190 43
2012-02-17 15:57 51°14.361 2°55.177 7 343 4.4 102200 43
2012-02-17 15:58 51°14.199 2°55.348 8.8 354 4.7 102200 43
2012-02-17 15:59 51°14.085 2°55.444 3.9 348 5.3 102210 46
2012-02-17 16:00 51°13.989 2°55.513 3.2 355 5.6 102210 44
2012-02-17 16:01 51°13.899 2°55.575 4.2 354 5.8 102210 44
2012-02-17 16:02 51°13.817 2°55.642 4.8 352 6 102210 44
2012-02-17 16:03 51°13.756 2°55.717 4.4 23 6.3 102210 46
2012-02-17 16:04 51°13.711 2°55.804 3.1 28 6.3 102210 44
2012-02-17 16:05 51°13.679 2°55.874 1 14 6.4 102210 47
2012-02-17 16:06 51°13.656 2°55.927 2.3 32 6.5 102210 46
2012-02-17 16:07 51°13.644 2°55.977 2.2 42 6.5 102210 45
2012-02-17 16:08 51°13.642 2°56.004 5.2 54 6.6 102210 45
2012-02-17 16:09 51°13.639 2°56.014 3 38 6.6 102210 45
2012-02-17 16:10 51°13.637 2°56.019 3.2 40 6.6 102200 46
2012-02-17 16:11 51°13.637 2°56.019 4.1 41 6.6 102200 44
2012-02-17 16:12 51°13.636 2°56.018 2.9 42 6.7 102200 45
2012-02-17 16:13 51°13.636 2°56.019 3.2 57 6.7 102200 44